Location: Pasadena-CA
(34.1440°N, 118.1100°W)
Time: 23:49:42
(UTC-07:00)

Oscar 19 - Pass Details

Date: 07 July 2022
Orbit: 773 x 790 km, 98.8° (Epoch: 14 August)

Event Time Altitude Azimuth Distance (km) Brightness Sun altitude
Rises 03:36:51 0° 25° (NNE) 3,253 15.2 -21.8°
Reaches altitude 10° 03:39:26 10° 36° (NE) 2,322 14.3 -21.5°
Maximum altitude 03:43:55 30° 98° (E) 1,347 12.1 -20.9°
Enters shadow 03:48:05 11° 157° (SSE) 2,213 12.7 -20.3°
